Regional Weather Roundup
Issued by NWS Jackson, KY

Home | Current Version | Previous Version | Graphics & Text | Print | Product List | Glossary On
Versions: 1 2 3 4 5 6 7 8 9 10 11 12 13 14 15 16 17 18 19 20 21 22 23 24 25 26 27 28 29 30 31 32 33 34 35 36 37 38 39 40 41 42 43 44 45 46 47 48 49 50
000
ASUS43 KJKL 040710
RWRJKL

EAST KENTUCKY HOURLY WEATHER ROUNDUP
NATIONAL WEATHER SERVICE JACKSON KY
300 AM EDT TUE AUG 04 2015

NOTE: "FAIR" INDICATES FEW OR NO CLOUDS BELOW 12,000 FEET WITH
NO SIGNIFICANT WEATHER AND/OR OBSTRUCTIONS TO VISIBILITY.

* THESE REPORTS ARE NOT UNDER NWS QUALITY CONTROL AND MAY NOT
  REPORT WEATHER SUCH AS PRECIPITATION AND FOG.

KYZ079-080-083-085-087-088-110-112-115-119-120-040800
...EASTERN KENTUCKY...

CITY           SKY/WX    TMP DP  RH WIND       PRES   REMARKS
JACKSON        MOCLDY    65  63  93 CALM      29.98S FOG
LONDON         TSTM      70  63  78 NE5G18    29.99R
SOMERSET*      CLEAR     72  70  94 CALM      29.98S
MONTICELLO*    CLEAR     69  69 100 CALM      29.99F
MIDDLESBORO*   PTCLDY    67  67  98 CALM      29.99F
HAZARD APT*    FOG       66  66 100 CALM      29.98F VSB 1
PIKEVILLE APT* CLEAR     66  64  94 S6        29.97F
BIG SANDY*     PTSUNNY   67  65  94 SW5       29.97R
MOREHEAD APT*  CLOUDY    66  64  94 CALM      29.96S
$$

KYZ035-036-041-042-044-050-067-078-099-040800
...CENTRAL KENTUCKY...

CITY           SKY/WX    TMP DP  RH WIND       PRES   REMARKS
MT STERLING*   CLEAR     66  64  94 SW3       29.96F
FLEMING/MASON* PTCLDY   N/A N/A N/A CALM      29.95S
DANVILLE*      PTCLDY    73  70  88 SW5       29.96S
RICHMOND*      PTCLDY    72  68  88 SE6       29.95S
LEXINGTON      CLOUDY    71  66  84 S5        29.95S
FRANKFORT      CLEAR     70  67  90 CALM      29.93S
$$

KYZ091>093-OHZ055-061-077-WVZ005-015-034-035-042-040800
...SOUTHERN OHIO/WEST VIRGINIA...

CITY           SKY/WX    TMP DP  RH WIND       PRES   REMARKS
COVINGTON      MOCLDY    69  66  90 CALM      29.94R
COLUMBUS       CLEAR     64  61  90 CALM      29.93R
DAYTON         MOCLDY    66  61  84 CALM      29.95S
WILMINGTON     MOCLDY    66  63  90 CALM      29.95S
HUNTINGTON     CLEAR     65  63  93 CALM      29.93S
CHARLESTON     PTCLDY    69  59  70 W3        29.94R
PINEVILLE*     MOCLDY    64  64 100 MISG      30.03F
BECKLEY        MOCLDY    65  58  78 SW8       30.02F
BLUEFIELD      LGT RAIN  69  59  70 W13       30.08S
$$

VAZ002-007-008-TNZ017-027-036-066-071-040800
...SOUTHWEST VIRGINIA/EAST TENNESSEE...

CITY           SKY/WX    TMP DP  RH WIND       PRES   REMARKS
WISE*          MOCLDY    68  61  77 CALM      30.08S
ABINGDON*      PTCLDY    66  61  84 CALM      30.04F
BRISTOL        PTCLDY    64  61  90 CALM      30.01F
KNOXVILLE      CLEAR     73  64  73 CALM      29.98S
OAK RIDGE      CLEAR     72  68  87 CALM      29.99S
CROSSVILLE     CLEAR     69  66  90 CALM      30.04S
NASHVILLE      CLEAR     76  70  82 CALM      29.96S
$$

...KEY TO REMARKS...
VSB - VISIBILITY IN MILES
WCI - WIND CHILL INDEX
HX  - HEAT INDEX

$$


USA.gov is the U.S. government's official web portal to all federal, state and local government web resources and services.